KUIPER-00145

Last updated on Mon Oct 20 2025 00:02:06 GMT+0000 (Coordinated Universal Time)

1 65767U 25217F 25292.25344110 .00030468 00000+0 85465-3 0 9999 2 65767 51.8718 327.8243 0003862 159.4638 200.6504 15.36310426 3660
UTC large
Height (km)
Speed (km/s)
/
Latitude / Longitude
Inclination (degrees)
Orbital Period (minutes)
Azimuth
Elevation
Range (km)
Doppler Factor

Next 0 passes for location: London (51.5072 / 0.1276)

Sorry there are no passes over London.